CZ-4 DEB, 29040

Orbit data source: Space-Track

CZ-4 DEB, 29040 is space debris in SSO originally from a launch on Thu, 14 Oct 1999 UTC launched from the Taiyaun Space Center, China (TSC). Debris objects in space refer to the collection of defunct objects orbiting the Earth. Examples of debris include non-operational satellites, rocket bodies, and fragments generated from explosions, collisions, or faulty payload assembly.

Loading next visibility...
Identifier
29040, 1999-057NK
Orbit
SSO
Country
Flag of CNCN / PRC
Related business
Manufacturer
Unknown
Mission
Spacecraft
Bus & Motor
Unknown
Mass
Unknown
Launch date (UTC)
1999-10-14 (26 years ago)
Launch vehicle
Unknown
Launch site
Taiyaun Space Center, China (TSC)
Object type
Payload
Rocket body
Debris
Shape & HBR
Unknown shape, 0.1 m
Radar Cross Section
Small (<0.1 m²)

Expand to show TLE details & history
Last TLE update: 1 day ago

TLE from 1 day ago
0 CZ-4 DEB
1 29040U 99057NK  25288.35027541  .00001167  00000-0  31816-3 0  9994
2 29040  98.6203 331.3798 0073876 228.9419 130.5375 14.47757462184379
Epoch: 2025-10-15T08:24Z
TLE epoch observation values (Epoch: 2025-10-15T08:24:23.795Z)
Latitude
0.00002°
Longitude
-178.84496°
Altitude
770.311 km
Speed
7.451 km/s
True Right ascension
22h 05m 31s
True Declination
0° 00' 00"
Sunlit
Object was in full shadow at epoch
Visualization orbit readout
Latitude
Unknown
Longitude
Unknown
Altitude
Unknown
Speed
Unknown
Apparent Right ascension
Unknown
Apparent Declination
Unknown
Sunlit
N/A
Visualization observer readout
Local Sidereal Time
04:00:28
Azimuth
Unknown
Elevation
Unknown
Doppler factor
Unknown
Orbital elements
Apogee altitude
782.612 km
Perigee altitude
677.587 km
Semi-major axis
7,108.236 km
Eccentricity
0.00739
Inclination
98.6203°
RAAN
331.3798°
Arg. of periapsis
228.9419°
True anomaly
131.17701°
Mean anomaly
130.5375°
Eccentric anomaly
130.85764°
Mean motion
3.6216 °/min
Orbital period
99.4 mins
BSTAR
0.00031816
Loading maneuver chart data...
Computing Atmospheric mass density...
Loading historical data...
Loading historical data...
Loading historical data...
Loading historical data...
Loading historical data...
Loading historical data...
Loading historical data...

Documentation

Showing up to 5 results
|